Location: ?
(35.4064°N, 139.3593°E)
Time: 16:39:54
(UTC+00:00)

ACS3 Solar Sail - Pass Details

Date: 20 June 2024
Orbit: 992 x 1023 km, 97.4° (Epoch: 14 July)

Event Time Altitude Azimuth Distance (km) Brightness Sun altitude
Exits shadow 11:19:21 17° 114° (ESE) 2,296 6.2 -13.8°
Maximum altitude 11:22:53 28° 68° (ENE) 1,770 5.9 -14.3°
Drops below altitude 10° 11:28:02 10° 12° (NNE) 2,766 7.6 -15.0°
Sets 11:30:51 0° 2° (N) 3,717 8.5 -15.5°
